Regional Weather Roundup
Issued by NWS

Home | Current Version | Previous Version | Text Only | Print | Product List | Glossary Off
Versions: 1 2 3 4 5 6 7 8 9 10 11 12 13 14 15 16 17 18 19 20 21 22 23 24 25 26 27 28 29 30 31 32 33 34 35 36 37 38 39 40 41 42 43 44 45 46 47 48 49 50

148
ASUS43 KOAX 261802
RWRNE

WEATHER ROUNDUP FOR NEBRASKA
NATIONAL WEATHER SERVICE OMAHA NE
1200 PM CST SUN FEB 26 2017

NOTES: SATELLITE DATA IS BEING USED TO AUGMENT CLOUD COVER ABOVE
       12000 FEET.
       "FAIR" INDICATES FEW OR NO CLOUDS BELOW 12,000 FEET WITH NO
       SIGNIFICANT WEATHER AND/OR OBSTRUCTIONS TO VISIBILITY.

  * THESE STATIONS DO NOT REPORT WEATHER SUCH AS RAIN...SNOW OR FOG.

NEZ001>004-019>022-054>056-261900-
NEBRASKA PANHANDLE

CITY           SKY/WX    TMP DP  RH WIND       PRES   REMARKS
SCOTTSBLUFF    SUNNY     25  10  53 NW8       29.87S WCI  16
6HR MIN TEMP:   4; 6HR MAX TEMP:  25;

ALLIANCE       SUNNY     21  12  68 W14       29.84S WCI   8
6HR MIN TEMP:  -4; 6HR MAX TEMP:  21;

CHADRON        SUNNY     23   5  46 W9        29.86S WCI  13
6HR MIN TEMP:   2; 6HR MAX TEMP:  23;

KIMBALL        SUNNY     31  12  45 W18       29.83F WCI  19
SIDNEY         SUNNY     30  10  43 NW16      29.86S WCI  19
6HR MIN TEMP:  11; 6HR MAX TEMP:  30;

$$

NEZ057>060-069>072-079>082-261900-
SOUTHWEST NEBRASKA

CITY           SKY/WX    TMP DP  RH WIND       PRES   REMARKS
NORTH PLATTE   SUNNY     35  14  42 W12       29.91F WCI  27
6HR MIN TEMP:  10; 6HR MAX TEMP:  35;

IMPERIAL       SUNNY     36  11  35 NW18      29.92F WCI  26
6HR MIN TEMP:  19; 6HR MAX TEMP:  36;

LEXINGTON      SUNNY     36  14  40 NW14      29.92F WCI  27
MCCOOK         SUNNY     41  10  28 W20       29.94S
6HR MIN TEMP:  16; 6HR MAX TEMP:  41;

OGALLALA       SUNNY     33  15  45 NW16G23   29.90S WCI  23
$$

NEZ005>010-023>029-035>040-094-261900-
NORTH CENTRAL NEBRASKA

CITY           SKY/WX    TMP DP  RH WIND       PRES   REMARKS
VALENTINE      SUNNY     25  12  58 W13       29.86S WCI  14
6HR MIN TEMP:   5; 6HR MAX TEMP:  25;

AINSWORTH      SUNNY     29  18  62 W12       29.87S WCI  19
BROKEN BOW     SUNNY     30  17  58 W7        29.90S WCI  23
6HR MIN TEMP:  18; 6HR MAX TEMP:  31;

O`NEILL        SUNNY     31  16  54 W3        29.89S
ORD            SUNNY     33  15  47 NW3       29.91R
6HR MIN TEMP:  17; 6HR MAX TEMP:  33;

THEDFORD       SUNNY     28  15  57 W7        29.89S WCI  21
$$

NEZ041-046>049-061>064-073>077-083>087-261900-
SOUTH CENTRAL NEBRASKA

CITY           SKY/WX    TMP DP  RH WIND       PRES   REMARKS
GRAND ISLAND   SUNNY     38  21  50 VRB7      29.94S WCI  33
6HR MIN TEMP:  25; 6HR MAX TEMP:  38;

AURORA         SUNNY     38  21  51 W6        29.94S WCI  33
HASTINGS       SUNNY     40  16  37 VRB6      29.94F
6HR MIN TEMP:  24; 6HR MAX TEMP:  40;

HEBRON         SUNNY     45  17  32 W10       29.95F
HOLDREGE       SUNNY     39  12  33 W10G16    29.93S WCI  32
KEARNEY *      SUNNY     37  16  41 W9        29.93F WCI  31
YORK           SUNNY     37  25  60 W7        29.95S WCI  32
$$

NEZ011>018-030>034-042>045-261900-
NORTHEAST NEBRASKA

CITY           SKY/WX    TMP DP  RH WIND       PRES   REMARKS
NORFOLK        SUNNY     30  18  60 VRB7      29.92R WCI  23
6HR MIN TEMP:  18; 6HR MAX TEMP:  30;

ALBION         SUNNY     33  18  53 NW5       29.92S WCI  29
BLAIR          SUNNY     35  22  59 W7        29.95S WCI  29
FREMONT        SUNNY     34  23  63 W7        29.96S WCI  28
TEKAMAH        SUNNY     32  19  58 W8        29.96R WCI  25
6HR MIN TEMP:  20; 6HR MAX TEMP:  32;

WAYNE          SUNNY     31  21  66 W8        29.93R WCI  24
$$

NEZ050>053-065>068-078-088>093-261900-
SOUTHEAST NEBRASKA

CITY           SKY/WX    TMP DP  RH WIND       PRES   REMARKS
LINCOLN        SUNNY     40  21  46 W8        29.98S WCI  34
6HR MIN TEMP:  29; 6HR MAX TEMP:  40;

OMAHA EPPLEY   MOSUNNY   40  20  44 W12       29.96S WCI  33
6HR MIN TEMP:  32; 6HR MAX TEMP:  40;

BEATRICE       SUNNY     47  27  44 W15       29.95F
FALLS CITY     SUNNY     50  27  40 S17G25    29.95F
6HR MIN TEMP:  31; 6HR MAX TEMP:  51;

NEBRASKA CITY  SUNNY     46  19  34 W13G18    29.95F
PLATTSMOUTH    SUNNY     42  22  45 W9G17     29.95S
$$

NEZ044-045-051>053-067-261900-
OMAHA AREA

CITY           SKY/WX    TMP DP  RH WIND       PRES   REMARKS
OMAHA EPPLEY   MOSUNNY   40  20  44 W12       29.96S WCI  33
6HR MIN TEMP:  32; 6HR MAX TEMP:  40;

BLAIR          SUNNY     35  22  59 W7        29.95S WCI  29
FREMONT        SUNNY     34  23  63 W7        29.96S WCI  28
MILLARD        SUNNY     39  22  48 NW5       29.97S
OFFUTT AFB     SUNNY     40  21  47 W13       29.96R WCI  33
PLATTSMOUTH    SUNNY     42  22  45 W9G17     29.95S
WAHOO          FAIR      36  22  55 W7        29.96R WCI  30
$$




USA.gov is the U.S. government's official web portal to all federal, state and local government web resources and services.